Location: Leiter
(44.7178°N, 106.2687°W)
Time: 20:06:18
(UTC+00:00)

AO-7 - Visible Passes

Search period start: 29 June 2022 00:00
Search period end: 09 July 2022 00:00
Orbit: 1439 x 1459 km, 101.9° (Epoch: 29 June)

Date Brightness Start Highest point End Pass type
(mag) Time Alt. Az. Time Alt. Az. Time Alt. Az.
29 Jun ? 09:41:51 10° ENE 09:45:25 13° E 09:48:58 10° ESE visible
30 Jun ? 10:32:05 10° NE 10:39:15 31° E 10:46:22 10° SSE visible
01 Jul ? 09:35:50 10° ENE 09:38:12 11° E 09:40:34 10° ESE visible
02 Jul ? 10:25:13 10° NE 10:32:07 28° E 10:38:57 10° SSE visible
04 Jul ? 10:18:23 10° NE 10:24:58 25° E 10:31:29 10° SE visible
06 Jul ? 10:11:36 10° NE 10:17:48 22° E 10:23:58 10° SE visible
08 Jul ? 10:04:51 10° NE 10:10:38 20° E 10:16:22 10° SE visible
